Location: Unspecified
(35.7250°N, 0.0000°E)
Time: 16:56:32
(UTC+00:00)

Altair - All Passes

Search period start: 17 June 2019 00:00
Search period end: 27 June 2019 00:00
Orbit: 1501 x 1683 km, 47.2° (Epoch: 16 June)

Date Brightness Start Highest point End Pass type
(mag) Time Alt. Az. Time Alt. Az. Time Alt. Az.
17 Jun - 01:08:44 10° WNW 01:18:19 47° NNE 01:28:01 10° E visible
17 Jun - 03:13:59 10° NW 03:24:10 89° NE 03:34:22 10° SE visible
17 Jun - 05:19:52 10° WNW 05:28:14 30° SW 05:36:34 10° S daylight
17 Jun - 18:29:24 10° S 18:36:43 26° SE 18:44:15 10° ENE daylight
17 Jun - 20:30:58 10° SW 20:40:30 87° SE 20:50:28 10° ENE visible
17 Jun - 22:36:50 10° W 22:46:10 48° NNW 22:55:50 10° ENE visible
18 Jun - 00:43:28 10° WNW 00:52:58 46° NNE 01:02:38 10° E visible
18 Jun - 02:48:46 10° NW 02:58:56 84° NNE 03:09:09 10° ESE visible
18 Jun - 04:54:28 10° WNW 05:03:09 34° SW 05:11:47 10° S daylight
18 Jun - 18:04:47 10° S 18:11:41 23° SE 18:18:43 10° ENE daylight
18 Jun - 20:05:51 10° SW 20:15:19 81° SE 20:25:14 10° ENE visible
18 Jun - 22:11:32 10° W 22:20:51 49° NNW 22:30:32 10° ENE visible
19 Jun - 00:18:12 10° WNW 00:27:37 45° N 00:37:14 10° E visible
19 Jun - 02:23:34 10° NW 02:33:42 80° NNE 02:43:54 10° ESE visible
19 Jun - 04:29:05 10° WNW 04:38:02 37° SW 04:46:58 10° SSE daylight
19 Jun - 17:40:16 10° SSE 17:46:38 21° SE 17:53:08 10° E daylight
19 Jun - 19:40:45 10° SW 19:50:09 76° SE 20:00:00 10° ENE visible
19 Jun - 21:46:13 10° W 21:55:32 51° NNW 22:05:14 10° ENE visible
19 Jun - 23:52:56 10° WNW 00:02:16 44° N 00:11:50 10° ENE visible
20 Jun - 01:58:22 10° NW 02:08:27 75° NNE 02:18:38 10° ESE visible
20 Jun - 04:03:45 10° WNW 04:12:55 41° SW 04:22:05 10° SSE visible
20 Jun - 17:15:51 10° SSE 17:21:36 18° ESE 17:27:28 10° E daylight
20 Jun - 19:15:41 10° SW 19:25:00 71° SE 19:34:44 10° ENE daylight
20 Jun - 21:20:55 10° W 21:30:14 53° NNW 21:39:58 10° ENE visible
20 Jun - 23:27:39 10° WNW 23:36:55 43° N 23:46:27 10° ENE visible
21 Jun - 01:33:09 10° NW 01:43:12 71° NNE 01:53:21 10° ESE visible
21 Jun - 03:38:25 10° WNW 03:47:47 44° SW 03:57:10 10° SSE visible
21 Jun - 16:51:34 10° SSE 16:56:34 16° ESE 17:01:38 10° E daylight
21 Jun - 18:50:38 10° SW 18:59:52 65° SE 19:09:29 10° ENE daylight
21 Jun - 20:55:37 10° W 21:04:57 55° NNW 21:14:41 10° NE visible
21 Jun - 23:02:21 10° WNW 23:11:34 43° N 23:21:03 10° ENE visible
22 Jun - 01:07:57 10° NW 01:17:56 68° NNE 01:28:03 10° ESE visible
22 Jun - 03:13:08 10° WNW 03:22:38 48° SW 03:32:12 10° SSE visible
22 Jun - 16:27:31 10° SSE 16:31:33 14° ESE 16:35:38 10° E daylight
22 Jun - 18:25:37 10° SW 18:34:44 60° SE 18:44:13 10° ENE daylight
22 Jun - 20:30:20 10° W 20:39:41 58° NNW 20:49:25 10° NE visible
22 Jun - 22:37:04 10° WNW 22:46:13 43° N 22:55:40 10° ENE visible
23 Jun - 00:42:45 10° NW 00:52:39 64° NNE 01:02:44 10° ESE visible
23 Jun - 02:47:51 10° WNW 02:57:30 53° SW 03:07:12 10° SSE visible
23 Jun - 04:58:10 10° WSW 05:00:45 11° WSW 05:03:22 10° SW daylight
23 Jun - 16:03:55 10° SE 16:06:32 11° ESE 16:09:10 10° ESE daylight
23 Jun - 18:00:38 10° SSW 18:09:37 55° SE 18:18:57 10° ENE daylight
23 Jun - 20:05:04 10° WSW 20:14:24 60° NNW 20:24:10 10° NE visible
23 Jun - 22:11:46 10° WNW 22:20:53 42° N 22:30:17 10° ENE visible
24 Jun - 00:17:33 10° NW 00:27:22 61° NNE 00:37:25 10° ESE visible
24 Jun - 02:22:36 10° WNW 02:32:20 57° SW 02:42:11 10° SSE visible
24 Jun - 04:31:32 10° W 04:35:42 13° WSW 04:39:53 10° SSW daylight
24 Jun - 17:35:41 10° SSW 17:44:31 51° SE 17:53:40 10° ENE daylight
24 Jun - 19:39:48 10° WSW 19:49:09 63° NNW 19:58:55 10° NE visible
24 Jun - 21:46:28 10° WNW 21:55:31 42° N 22:04:54 10° ENE visible
24 Jun - 23:52:21 10° NW 00:02:05 58° NNE 00:12:04 10° ESE visible
25 Jun - 01:57:21 10° WNW 02:07:11 62° SW 02:17:07 10° SE visible
25 Jun - 04:05:27 10° W 04:10:38 15° WSW 04:15:52 10° SSW visible
25 Jun - 17:10:45 10° SSW 17:19:25 46° SE 17:28:23 10° ENE daylight
25 Jun - 19:14:34 10° WSW 19:23:55 67° NNW 19:33:41 10° NE daylight
25 Jun - 21:21:09 10° WNW 21:30:11 42° N 21:39:32 10° ENE visible
25 Jun - 23:27:08 10° NW 23:36:48 56° NNE 23:46:42 10° E visible
26 Jun - 01:32:07 10° WNW 01:42:00 67° SW 01:52:02 10° SE visible
26 Jun - 03:39:35 10° W 03:45:34 18° WSW 03:51:36 10° SSW visible
26 Jun - 16:45:52 10° SSW 16:54:20 42° SE 17:03:04 10° ENE daylight
26 Jun - 18:49:20 10° WSW 18:58:41 71° NNW 19:08:28 10° NE daylight
26 Jun - 20:55:51 10° WNW 21:04:51 43° N 21:14:11 10° ENE visible
26 Jun - 23:01:56 10° WNW 23:11:30 53° NNE 23:21:20 10° E visible
